�N����,�����b,�ŏ������i�x�j,���ϕ����i�x�j,�ő啗���i�x�j,�ŏ�����(m/s),���ϕ���(m/s),�ő啗��(m/s),�C��(���j,���x�i���j,�C��(hPa),�~�J��(mm),�~�J����(�b�j,�~�J���x(mm/h),�~�Ђ傤��(hit/���u),�~�Ђ傤����(�b�j,�~�Ђ傤���x(hit/���uh),�q�[�^���x(���j,�q�[�^�[�d���iV),�d���d���iV),�Q�Ɠd���iV)
2010/03/01,00:00:01,3,177,342,0.1,3.8,12.7,18.5,77.6,1011.2,0.00,0,0.0,0.0,0,0.0,16.5,0.0,11.5,3.474
2010/03/01,00:10:01,0,182,346,0.0,4.6,13.6,18.6,77.5,1011.0,0.00,0,0.0,0.0,0,0.0,16.7,0.0,11.9,3.474
2010/03/01,00:20:01,358,174,340,0.1,3.0,11.7,18.3,78.0,1010.8,0.00,0,0.0,0.0,0,0.0,16.9,0.0,11.8,3.473
2010/03/01,00:30:01,359,170,341,0.0,2.8,12.9,18.3,78.2,1010.8,0.00,0,0.0,0.0,0,0.0,16.7,0.0,11.6,3.472
2010/03/01,00:40:01,2,183,2,0.2,3.8,12.7,18.4,78.4,1010.7,0.00,0,0.0,0.0,0,0.0,16.5,0.0,11.7,3.474
2010/03/01,00:50:01,359,176,340,0.1,4.6,12.3,18.9,77.0,1010.5,0.00,0,0.0,0.0,0,0.0,16.9,0.0,11.6,3.474
2010/03/01,01:00:01,2,170,341,0.1,2.7,12.9,18.5,77.4,1010.4,0.00,0,0.0,0.0,0,0.0,16.7,0.0,11.6,3.475
2010/03/01,01:10:01,357,175,340,0.1,2.8,13.1,18.6,78.1,1010.4,0.00,0,0.0,0.0,0,0.0,16.7,0.0,11.7,3.473
2010/03/01,01:20:01,2,182,2,0.4,5.5,12.3,19.0,76.9,1010.4,0.00,0,0.0,0.0,0,0.0,17.0,0.0,11.8,3.473
2010/03/01,01:30:01,0,166,341,0.2,3.0,12.7,18.4,77.5,1010.3,0.00,0,0.0,0.0,0,0.0,16.5,0.0,11.8,3.473
2010/03/01,01:40:01,1,169,342,0.3,3.0,12.3,18.5,78.6,1010.2,0.00,0,0.0,0.0,0,0.0,16.9,0.0,11.9,3.473
2010/03/01,01:50:01,6,182,3,0.3,4.5,12.5,18.8,78.2,1010.2,0.00,0,0.0,0.0,0,0.0,17.0,0.0,11.5,3.474
2010/03/01,02:00:01,358,178,339,0.1,3.0,12.3,18.3,78.7,1010.0,0.00,0,0.0,0.0,0,0.0,16.9,0.0,11.8,3.475
2010/03/01,02:10:01,356,172,355,0.1,3.4,12.2,18.7,78.5,1009.9,0.00,0,0.0,0.0,0,0.0,17.0,0.0,12.0,3.470
2010/03/01,02:20:01,356,175,350,0.1,2.9,12.5,18.6,79.0,1009.8,0.00,0,0.0,0.0,0,0.0,17.5,0.0,11.6,3.473
2010/03/01,02:30:01,355,172,352,0.1,2.8,11.6,18.5,79.9,1009.7,0.00,0,0.0,0.0,0,0.0,16.9,0.0,11.6,3.473
2010/03/01,02:40:01,352,170,349,0.1,2.8,11.7,18.6,79.0,1009.6,0.00,0,0.0,0.0,0,0.0,17.2,0.0,12.0,3.473
2010/03/01,02:50:01,2,181,1,0.2,3.7,12.6,18.8,78.5,1009.6,0.00,0,0.0,0.0,0,0.0,17.4,0.0,11.6,3.474
2010/03/01,03:00:01,344,156,338,0.1,2.5,12.0,18.6,78.5,1009.6,0.00,0,0.0,0.0,0,0.0,17.0,0.0,11.9,3.474
2010/03/01,03:10:01,341,163,337,0.1,2.7,12.6,18.8,77.7,1009.5,0.00,0,0.0,0.0,0,0.0,17.2,0.0,11.7,3.474
2010/03/01,03:20:01,354,170,349,0.2,3.5,13.1,19.0,76.6,1009.3,0.00,0,0.0,0.0,0,0.0,17.5,0.0,11.7,3.474
2010/03/01,03:30:01,0,181,358,0.1,2.8,11.7,19.0,76.5,1009.1,0.00,0,0.0,0.0,0,0.0,17.4,0.0,11.9,3.473
2010/03/01,03:40:01,0,177,356,0.2,3.7,12.3,19.0,77.3,1008.9,0.00,0,0.0,0.0,0,0.0,17.2,0.0,12.0,3.474
2010/03/01,03:50:01,350,164,344,0.1,3.8,13.2,19.0,75.6,1008.7,0.00,0,0.0,0.0,0,0.0,17.2,0.0,11.9,3.473
2010/03/01,04:00:01,359,166,343,0.0,3.4,13.1,19.3,73.5,1008.7,0.00,0,0.0,0.0,0,0.0,17.5,0.0,12.1,3.470
2010/03/01,04:10:01,343,162,342,0.1,3.4,13.9,19.7,71.4,1008.6,0.00,0,0.0,0.0,0,0.0,18.0,0.0,11.9,3.473
2010/03/01,04:20:01,339,144,325,0.1,3.1,13.1,19.8,72.1,1008.7,0.00,0,0.0,0.0,0,0.0,18.4,0.0,11.7,3.473
2010/03/01,04:30:01,326,145,323,0.1,3.0,13.0,19.9,68.9,1008.5,0.00,0,0.0,0.0,0,0.0,18.4,0.0,11.7,3.473
2010/03/01,04:40:01,326,146,325,0.0,3.2,13.6,20.1,69.8,1008.2,0.00,0,0.0,0.0,0,0.0,18.7,0.0,11.6,3.474
2010/03/01,04:50:01,325,143,324,0.1,3.5,15.0,20.1,70.7,1008.0,0.00,0,0.0,0.0,0,0.0,18.9,0.0,11.9,3.472
2010/03/01,05:00:01,337,148,324,0.1,4.0,15.7,20.2,69.6,1008.1,0.00,0,0.0,0.0,0,0.0,18.7,0.0,11.7,3.472
2010/03/01,05:10:01,324,143,275,0.1,3.3,12.7,20.3,69.0,1008.1,0.00,0,0.0,0.0,0,0.0,18.9,0.0,11.9,3.473
2010/03/01,05:20:01,325,145,324,0.2,3.2,12.5,20.4,67.6,1008.3,0.00,0,0.0,0.0,0,0.0,19.1,0.0,11.4,3.472
2010/03/01,05:30:01,347,150,326,0.2,2.8,11.7,20.5,68.2,1008.3,0.00,0,0.0,0.0,0,0.0,19.2,0.0,11.6,3.474
2010/03/01,05:40:01,338,152,326,0.1,3.0,11.3,20.5,68.8,1008.5,0.00,0,0.0,0.0,0,0.0,19.2,0.0,11.8,3.473
2010/03/01,05:50:01,338,154,327,0.1,2.8,12.7,20.4,67.8,1008.4,0.00,0,0.0,0.0,0,0.0,19.1,0.0,11.5,3.473
2010/03/01,06:00:01,340,147,325,0.0,3.3,13.8,20.5,69.6,1008.4,0.00,0,0.0,0.0,0,0.0,18.7,0.0,11.7,3.472
2010/03/01,06:10:01,327,146,323,0.1,3.6,15.2,20.5,69.5,1008.6,0.00,0,0.0,0.0,0,0.0,19.2,0.0,11.7,3.473
2010/03/01,06:20:01,340,160,331,0.1,3.1,12.7,20.6,71.4,1008.8,0.00,0,0.0,0.0,0,0.0,19.1,0.0,12.1,3.473
2010/03/01,06:30:01,359,177,358,0.0,4.7,12.9,20.2,74.2,1009.1,0.00,0,0.0,0.0,0,0.0,18.7,0.0,11.7,3.473
2010/03/01,06:40:01,9,188,6,0.0,5.7,12.4,20.2,77.9,1009.4,0.00,0,0.0,0.0,0,0.0,18.7,0.0,11.7,3.472
2010/03/01,06:50:01,12,192,10,0.0,4.9,12.2,20.0,79.4,1009.3,0.00,0,0.0,0.0,0,0.0,18.7,0.0,12.1,3.473
2010/03/01,07:00:01,6,182,4,0.1,3.1,12.8,19.8,80.3,1009.3,0.00,0,0.0,0.0,0,0.0,18.6,0.0,12.0,3.473
2010/03/01,07:10:01,355,171,340,0.0,2.5,10.6,19.8,81.0,1009.4,0.00,0,0.0,0.0,0,0.0,18.4,0.0,12.0,3.473
2010/03/01,07:20:01,359,174,343,0.0,2.8,10.1,19.9,81.0,1009.5,0.00,0,0.0,0.0,0,0.0,19.2,0.0,12.1,3.473
2010/03/01,07:30:01,3,182,0,0.0,2.7,11.8,20.0,80.3,1009.7,0.00,0,0.0,0.0,0,0.0,19.2,0.0,11.8,3.472
2010/03/01,07:40:01,11,191,8,0.2,5.3,12.1,20.3,78.7,1009.7,0.00,0,0.0,0.0,0,0.0,19.7,0.0,11.5,3.472
2010/03/01,07:50:01,2,176,354,0.2,5.7,10.6,20.6,78.5,1009.8,0.00,0,0.0,0.0,0,0.0,20.4,0.0,11.7,3.470
2010/03/01,08:00:01,353,158,340,0.2,5.6,11.4,20.8,76.8,1009.9,0.00,0,0.0,0.0,0,0.0,21.6,0.0,11.9,3.472
2010/03/01,08:10:01,355,165,334,0.1,5.2,10.7,21.1,76.6,1009.9,0.00,0,0.0,0.0,0,0.0,21.6,0.0,12.0,3.472
2010/03/01,08:20:01,345,160,338,0.2,5.7,11.7,21.4,75.2,1010.0,0.00,0,0.0,0.0,0,0.0,22.6,0.0,12.1,3.472
2010/03/01,08:30:01,0,156,309,0.1,5.9,12.1,21.5,75.0,1010.2,0.00,0,0.0,0.0,0,0.0,22.6,0.0,12.0,3.470
2010/03/01,08:40:01,334,152,331,0.3,5.8,11.1,21.5,75.2,1010.3,0.00,0,0.0,0.0,0,0.0,22.2,0.0,12.1,3.470
2010/03/01,08:50:01,338,159,334,0.3,6.1,12.9,21.7,75.2,1010.2,0.00,0,0.0,0.0,0,0.0,22.7,0.0,12.1,3.472
2010/03/01,09:00:01,4,180,336,0.1,6.7,11.9,22.1,73.8,1010.2,0.00,0,0.0,0.0,0,0.0,23.6,0.0,11.7,3.470
2010/03/01,09:10:01,16,196,15,0.2,7.2,11.9,22.4,73.8,1010.3,0.00,0,0.0,0.0,0,0.0,24.1,0.0,11.9,3.469
2010/03/01,09:20:01,88,208,28,0.3,7.4,12.8,22.5,71.7,1010.2,0.00,0,0.0,0.0,0,0.0,24.3,0.0,11.9,3.470
2010/03/01,09:30:01,27,205,25,0.1,7.2,13.8,22.6,70.9,1010.0,0.00,0,0.0,0.0,0,0.0,24.3,0.0,11.8,3.469
2010/03/01,09:40:01,16,193,323,0.3,6.8,12.0,23.1,69.1,1010.0,0.00,0,0.0,0.0,0,0.0,25.3,0.0,11.7,3.469
2010/03/01,09:50:01,10,186,325,0.0,7.0,12.3,23.4,68.0,1010.0,0.00,0,0.0,0.0,0,0.0,25.6,0.0,12.0,3.470
2010/03/01,10:00:01,5,183,357,0.1,7.4,13.4,23.6,68.2,1010.0,0.00,0,0.0,0.0,0,0.0,25.8,0.0,11.7,3.470
2010/03/01,10:10:01,2,180,1,0.3,7.3,14.4,23.8,68.7,1010.0,0.00,0,0.0,0.0,0,0.0,26.3,0.0,11.6,3.469
2010/03/01,10:20:01,4,184,348,0.2,7.2,13.6,23.6,68.6,1009.8,0.00,0,0.0,0.0,0,0.0,25.9,0.0,11.9,3.469
2010/03/01,10:30:01,12,192,12,0.5,7.5,13.2,23.7,69.1,1009.6,0.00,0,0.0,0.0,0,0.0,25.9,0.0,12.1,3.469
2010/03/01,10:40:01,10,187,8,0.1,7.5,14.6,23.9,68.1,1009.5,0.00,0,0.0,0.0,0,0.0,26.3,0.0,11.9,3.469
2010/03/01,10:50:01,0,181,357,0.2,7.3,15.2,23.9,67.2,1009.5,0.00,0,0.0,0.0,0,0.0,26.3,0.0,11.6,3.469
2010/03/01,11:00:01,9,187,8,0.1,7.9,14.9,24.0,67.9,1009.5,0.00,0,0.0,0.0,0,0.0,26.1,0.0,11.7,3.469
2010/03/01,11:10:01,12,191,12,0.2,8.2,15.4,23.9,67.9,1009.2,0.00,0,0.0,0.0,0,0.0,26.1,0.0,12.1,3.470
2010/03/01,11:20:01,17,198,16,0.8,9.0,19.1,24.0,67.7,1009.0,0.00,0,0.0,0.0,0,0.0,26.1,0.0,11.8,3.470
2010/03/01,11:30:01,17,195,16,0.2,8.1,16.4,24.3,67.1,1008.8,0.00,0,0.0,0.0,0,0.0,26.4,0.0,11.9,3.469
2010/03/01,11:40:01,11,191,10,0.5,8.5,17.2,24.3,67.2,1008.9,0.00,0,0.0,0.0,0,0.0,26.3,0.0,11.9,3.470
2010/03/01,11:50:01,3,182,359,0.2,7.3,15.8,24.5,67.1,1008.9,0.00,0,0.0,0.0,0,0.0,26.6,0.0,11.8,3.469
2010/03/01,12:00:01,356,177,356,0.1,7.2,14.7,24.3,67.8,1008.7,0.00,0,0.0,0.0,0,0.0,26.6,0.0,11.5,3.470
2010/03/01,12:10:01,2,181,358,0.2,7.7,15.8,24.6,67.6,1008.6,0.00,0,0.0,0.0,0,0.0,26.9,0.0,11.9,3.469
2010/03/01,12:20:01,351,169,336,0.1,7.2,16.3,24.7,67.9,1008.7,0.00,0,0.0,0.0,0,0.0,26.9,0.0,11.8,3.470
2010/03/01,12:30:01,349,170,349,0.3,6.8,15.9,24.6,67.2,1008.7,0.00,0,0.0,0.0,0,0.0,27.1,0.0,11.5,3.467
2010/03/01,12:40:01,355,172,353,0.2,7.1,15.1,24.6,67.2,1008.6,0.00,0,0.0,0.0,0,0.0,26.8,0.0,11.5,3.469
2010/03/01,12:50:01,346,162,338,0.2,6.3,14.3,24.8,68.8,1008.3,0.00,0,0.0,0.0,0,0.0,27.1,0.0,11.7,3.469
2010/03/01,13:00:01,336,157,333,0.1,6.3,13.9,24.9,65.6,1008.2,0.00,0,0.0,0.0,0,0.0,27.4,0.0,11.8,3.469
2010/03/01,13:10:01,339,155,331,0.3,6.3,13.0,25.0,66.2,1008.1,0.00,0,0.0,0.0,0,0.0,27.8,0.0,11.5,3.468
2010/03/01,13:20:01,328,146,325,0.2,6.0,13.4,25.4,66.6,1008.0,0.00,0,0.0,0.0,0,0.0,28.3,0.0,12.0,3.468
2010/03/01,13:30:01,326,146,325,0.0,5.9,13.0,26.0,64.1,1007.9,0.00,0,0.0,0.0,0,0.0,29.6,0.0,11.8,3.468
2010/03/01,13:40:01,336,151,329,0.1,6.3,13.3,25.5,66.1,1007.6,0.00,0,0.0,0.0,0,0.0,28.6,0.0,11.8,3.469
2010/03/01,13:50:01,336,149,325,0.2,6.3,12.6,25.3,67.2,1007.4,0.00,0,0.0,0.0,0,0.0,27.9,0.0,11.5,3.469
2010/03/01,14:00:01,336,149,328,0.2,6.3,14.1,25.1,67.5,1007.3,0.00,0,0.0,0.0,0,0.0,27.4,0.0,11.5,3.468
2010/03/01,14:10:01,356,172,341,0.2,7.0,13.1,24.6,69.3,1007.2,0.00,0,0.0,0.0,0,0.0,26.1,0.0,11.6,3.469
2010/03/01,14:20:01,10,190,9,0.3,7.0,12.2,24.1,71.3,1007.0,0.00,0,0.0,0.0,0,0.0,24.8,0.0,11.5,3.470
2010/03/01,14:30:01,16,194,14,0.5,6.9,12.8,24.2,73.0,1007.0,0.00,0,0.0,0.0,0,0.0,24.6,0.0,11.9,3.470
2010/03/01,14:40:01,349,163,339,0.1,6.7,12.8,24.7,70.4,1007.1,0.00,0,0.0,0.0,0,0.0,26.1,0.0,11.5,3.470
2010/03/01,14:50:01,346,164,326,0.2,6.6,12.7,24.7,70.4,1007.2,0.00,0,0.0,0.0,0,0.0,26.3,0.0,11.7,3.470
2010/03/01,15:00:01,336,147,326,0.1,6.1,12.8,25.7,67.9,1007.2,0.00,0,0.0,0.0,0,0.0,28.1,0.0,11.7,3.468
2010/03/01,15:10:01,326,146,324,0.2,6.0,12.4,25.6,67.3,1007.1,0.00,0,0.0,0.0,0,0.0,28.8,0.0,12.1,3.469
2010/03/01,15:20:01,341,157,331,0.3,6.6,13.2,25.2,67.8,1006.9,0.00,0,0.0,0.0,0,0.0,27.4,0.0,11.7,3.469
2010/03/01,15:30:01,346,162,344,0.1,6.6,12.8,25.4,68.5,1007.0,0.00,0,0.0,0.0,0,0.0,27.4,0.0,11.5,3.469
2010/03/01,15:40:01,333,149,326,0.3,6.2,12.7,25.3,69.3,1007.0,0.00,0,0.0,0.0,0,0.0,27.4,0.0,11.6,3.469
2010/03/01,15:50:01,338,156,329,0.4,6.4,11.6,24.9,70.0,1007.0,0.00,0,0.0,0.0,0,0.0,26.4,0.0,11.5,3.470
2010/03/01,16:00:01,1,181,357,0.3,6.9,13.0,24.4,72.4,1007.0,0.00,0,0.0,0.0,0,0.0,25.1,0.0,11.8,3.470
2010/03/01,16:10:01,10,190,9,0.1,7.1,12.3,24.1,73.6,1007.0,0.00,0,0.0,0.0,0,0.0,24.3,0.0,11.7,3.469
2010/03/01,16:20:01,79,213,28,0.5,7.3,12.4,24.0,73.8,1007.0,0.00,0,0.0,0.0,0,0.0,24.3,0.0,11.8,3.472
2010/03/01,16:30:01,71,231,39,0.3,7.2,12.3,24.0,74.1,1006.9,0.00,0,0.0,0.0,0,0.0,23.9,0.0,11.8,3.472
2010/03/01,16:40:01,86,221,38,0.5,7.3,13.6,24.1,73.8,1007.0,0.00,0,0.0,0.0,0,0.0,24.6,0.0,11.9,3.470
2010/03/01,16:50:01,85,226,30,0.1,7.3,14.2,23.9,74.3,1006.9,0.00,0,0.0,0.0,0,0.0,23.9,0.0,11.6,3.470
2010/03/01,17:00:01,83,231,32,0.2,7.2,13.8,23.6,75.8,1006.8,0.00,0,0.0,0.0,0,0.0,23.6,0.0,11.8,3.470
2010/03/01,17:10:01,49,229,39,0.3,7.2,12.9,23.5,77.0,1006.9,0.00,0,0.0,0.0,0,0.0,23.3,0.0,11.5,3.470
2010/03/01,17:20:01,88,227,40,0.2,7.3,13.4,23.3,78.1,1006.9,0.00,0,0.0,0.0,0,0.0,23.1,0.0,11.6,3.470
2010/03/01,17:30:01,81,230,25,0.3,7.2,13.2,23.3,77.7,1006.8,0.00,0,0.0,0.0,0,0.0,23.3,0.0,11.8,3.473
2010/03/01,17:40:01,85,231,26,0.5,7.3,12.7,23.3,77.2,1006.9,0.00,0,0.0,0.0,0,0.0,22.9,0.0,11.7,3.472
2010/03/01,17:50:01,51,227,40,0.6,7.1,12.0,23.3,77.5,1006.9,0.00,0,0.0,0.0,0,0.0,22.7,0.0,11.5,3.470
2010/03/01,18:00:01,47,226,40,0.2,6.9,12.2,23.2,78.8,1007.1,0.00,0,0.0,0.0,0,0.0,22.6,0.0,11.5,3.472
2010/03/01,18:10:01,86,218,36,0.4,6.7,12.6,23.0,80.1,1007.1,0.00,0,0.0,0.0,0,0.0,22.4,0.0,12.0,3.470
2010/03/01,18:20:01,38,219,25,0.5,6.8,13.1,23.0,80.4,1007.1,0.00,0,0.0,0.0,0,0.0,22.2,0.0,11.7,3.472
2010/03/01,18:30:01,34,213,27,0.2,6.7,11.7,22.9,80.8,1007.2,0.00,0,0.0,0.0,0,0.0,22.1,0.0,11.7,3.472
2010/03/01,18:40:01,85,210,25,0.1,6.5,11.9,22.8,81.4,1007.1,0.00,0,0.0,0.0,0,0.0,22.1,0.0,12.1,3.472
2010/03/01,18:50:01,38,212,26,0.3,6.6,12.2,22.8,81.3,1007.2,0.00,0,0.0,0.0,0,0.0,22.2,0.0,11.7,3.472
2010/03/01,19:00:01,38,214,29,0.3,6.7,12.5,22.9,81.2,1007.3,0.00,0,0.0,0.0,0,0.0,22.2,0.0,12.1,3.472
2010/03/01,19:10:01,88,216,25,0.2,6.8,12.4,22.8,81.2,1007.4,0.00,0,0.0,0.0,0,0.0,22.1,0.0,12.1,3.470
2010/03/01,19:20:01,31,211,25,0.0,6.7,12.5,22.8,82.0,1007.4,0.00,0,0.0,0.0,0,0.0,22.1,0.0,12.1,3.472
2010/03/01,19:30:01,32,210,27,0.2,6.8,12.4,22.7,81.8,1007.4,0.00,0,0.0,0.0,0,0.0,21.9,0.0,11.9,3.472
2010/03/01,19:40:01,35,211,26,0.3,6.7,12.2,22.8,81.3,1007.4,0.00,0,0.0,0.0,0,0.0,22.1,0.0,11.8,3.472
2010/03/01,19:50:01,26,207,25,0.2,6.6,11.8,22.8,81.3,1007.4,0.00,0,0.0,0.0,0,0.0,21.7,0.0,11.6,3.472
2010/03/01,20:00:01,33,207,25,0.0,6.7,12.8,22.8,81.1,1007.3,0.00,0,0.0,0.0,0,0.0,22.1,0.0,11.7,3.474
2010/03/01,20:10:01,33,207,25,0.4,7.0,12.5,22.8,80.6,1007.3,0.00,0,0.0,0.0,0,0.0,21.9,0.0,12.0,3.470
2010/03/01,20:20:01,50,210,30,0.3,7.0,14.1,22.9,80.1,1007.4,0.00,0,0.0,0.0,0,0.0,21.9,0.0,12.1,3.470
2010/03/01,20:30:01,30,211,26,0.3,7.0,13.4,22.9,80.4,1007.5,0.00,0,0.0,0.0,0,0.0,22.1,0.0,11.8,3.470
2010/03/01,20:40:01,31,209,30,0.3,6.8,12.8,22.8,80.5,1007.4,0.00,0,0.0,0.0,0,0.0,21.9,0.0,12.0,3.470
2010/03/01,20:50:01,28,207,26,0.2,7.0,14.4,22.8,80.9,1007.5,0.00,0,0.0,0.0,0,0.0,22.1,0.0,12.1,3.472
2010/03/01,21:00:01,27,206,25,0.0,7.2,14.3,22.8,81.0,1007.5,0.00,0,0.0,0.0,0,0.0,21.7,0.0,11.9,3.472
2010/03/01,21:10:01,33,208,26,0.2,7.2,14.6,22.8,81.1,1007.6,0.00,0,0.0,0.0,0,0.0,21.9,0.0,11.9,3.472
2010/03/01,21:20:01,35,213,28,0.1,7.0,13.7,22.9,81.2,1007.7,0.00,0,0.0,0.0,0,0.0,21.9,0.0,12.1,3.472
2010/03/01,21:30:01,89,216,35,0.3,7.2,13.5,22.9,81.7,1007.8,0.00,0,0.0,0.0,0,0.0,22.1,0.0,11.7,3.472
2010/03/01,21:40:01,38,213,28,0.1,7.0,12.6,22.8,81.9,1007.7,0.00,0,0.0,0.0,0,0.0,22.1,0.0,11.7,3.472
2010/03/01,21:50:01,35,214,28,0.2,6.9,13.2,22.8,82.1,1007.9,0.00,0,0.0,0.0,0,0.0,21.9,0.0,11.9,3.472
2010/03/01,22:00:01,32,209,30,0.1,6.8,13.4,22.8,82.4,1007.7,0.00,0,0.0,0.0,0,0.0,21.9,0.0,11.9,3.472
2010/03/01,22:10:01,27,206,26,0.2,6.7,12.2,22.7,82.8,1007.7,0.00,0,0.0,0.0,0,0.0,21.7,0.0,11.6,3.472
2010/03/01,22:20:01,28,208,26,0.1,6.8,12.8,22.7,82.9,1007.8,0.00,0,0.0,0.0,0,0.0,21.9,0.0,11.7,3.472
2010/03/01,22:30:01,30,209,25,0.2,6.7,11.7,22.7,82.8,1007.8,0.00,0,0.0,0.0,0,0.0,21.9,0.0,12.0,3.472
2010/03/01,22:40:01,23,203,22,0.2,6.7,11.7,22.7,83.0,1007.8,0.00,0,0.0,0.0,0,0.0,21.9,0.0,11.9,3.472
2010/03/01,22:50:01,31,210,28,0.3,7.1,12.3,22.8,83.4,1007.7,0.00,0,0.0,0.0,0,0.0,21.9,0.0,11.7,3.470
2010/03/01,23:00:01,51,214,33,0.1,7.0,13.8,22.7,83.8,1007.7,0.00,0,0.0,0.0,0,0.0,21.9,0.0,12.1,3.472
2010/03/01,23:10:01,39,211,31,0.2,6.9,13.6,22.7,84.1,1007.6,0.00,0,0.0,0.0,0,0.0,21.9,0.0,11.7,3.472
2010/03/01,23:20:01,36,211,27,0.2,7.0,13.4,22.7,84.2,1007.5,0.00,0,0.0,0.0,0,0.0,21.9,0.0,11.9,3.470
2010/03/01,23:30:01,34,214,33,0.2,7.1,13.8,22.7,84.3,1007.5,0.00,0,0.0,0.0,0,0.0,21.9,0.0,11.7,3.470
2010/03/01,23:40:01,82,221,26,0.1,6.8,13.2,22.7,84.6,1007.8,0.00,0,0.0,0.0,0,0.0,22.1,0.0,12.1,3.470
2010/03/01,23:50:01,59,223,27,0.2,7.0,14.4,21.4,83.6,1007.6,0.00,0,0.0,0.0,0,0.0,20.9,0.0,11.5,3.472
2010/03/02,00:00:01,47,229,46,0.1,6.9,18.0,20.8,84.8,1007.2,0.00,0,0.0,0.0,0,0.0,20.2,0.0,11.5,3.472
2010/03/02,00:10:01,56,234,52,1.1,7.1,19.2,20.6,85.7,1007.4,0.00,0,0.0,0.0,0,0.0,19.7,0.0,11.6,3.472
2010/03/02,00:20:01,52,233,51,0.3,6.9,19.4,20.5,86.2,1007.4,0.66,190,0.0,0.0,0,0.0,19.6,0.0,11.6,3.473
2010/03/02,00:30:01,73,252,73,0.4,5.9,18.9,20.4,87.0,1007.4,0.01,20,0.0,0.0,0,0.0,19.2,0.0,12.0,3.472
2010/03/02,00:40:01,67,244,56,0.4,5.5,18.3,20.3,87.1,1007.2,0.00,10,0.0,0.0,0,0.0,19.2,0.0,11.8,3.473
2010/03/02,00:50:01,60,231,30,0.1,5.0,16.5,20.2,87.3,1007.3,0.00,0,0.0,0.0,0,0.0,19.2,0.0,11.8,3.472
2010/03/02,01:00:01,76,240,30,0.1,5.2,14.1,20.2,87.6,1007.2,0.07,140,0.0,0.0,0,0.0,18.9,0.0,11.9,3.473
2010/03/02,01:10:01,81,234,44,0.1,4.9,19.7,20.0,87.9,1007.1,0.35,370,0.0,0.0,0,0.0,18.9,0.0,11.8,3.472
2010/03/02,01:20:01,67,229,49,0.2,4.9,10.9,20.0,88.4,1007.2,0.34,290,0.0,0.0,0,0.0,19.1,0.0,11.9,3.473
2010/03/02,01:30:01,130,223,26,0.2,4.9,11.2,19.8,88.6,1007.2,0.00,0,0.0,0.0,0,0.0,18.9,0.0,12.0,3.472
2010/03/02,01:40:01,129,220,21,0.1,4.8,12.1,19.7,88.4,1007.1,0.00,0,0.0,0.0,0,0.0,18.7,0.0,11.8,3.473
2010/03/02,01:50:01,131,214,22,0.1,5.0,11.8,19.6,88.5,1006.9,0.00,0,0.0,0.0,0,0.0,18.7,0.0,11.7,3.473
2010/03/02,02:00:01,136,217,13,0.1,5.2,11.9,19.7,88.6,1006.7,0.00,0,0.0,0.0,0,0.0,18.7,0.0,11.8,3.473
2010/03/02,02:10:01,189,213,25,0.3,5.0,20.0,19.7,88.4,1006.6,0.00,0,0.0,0.0,0,0.0,18.7,0.0,11.6,3.473
2010/03/02,02:20:01,141,212,7,0.3,5.2,12.8,19.7,88.1,1006.7,0.00,0,0.0,0.0,0,0.0,18.9,0.0,11.7,3.473
2010/03/02,02:30:01,146,211,26,0.1,5.2,11.2,19.6,87.9,1006.7,0.00,0,0.0,0.0,0,0.0,18.7,0.0,11.7,3.473
2010/03/02,02:40:01,76,224,31,0.5,5.4,8.4,19.6,87.8,1006.6,0.00,0,0.0,0.0,0,0.0,19.1,0.0,12.1,3.472
2010/03/02,02:50:01,84,232,30,0.1,5.6,10.4,19.7,87.8,1006.6,0.00,0,0.0,0.0,0,0.0,19.1,0.0,12.1,3.472
2010/03/02,03:00:01,88,236,29,0.1,5.8,9.6,19.7,87.6,1006.4,0.00,0,0.0,0.0,0,0.0,19.1,0.0,12.1,3.474
2010/03/02,03:10:01,84,251,31,0.0,5.7,12.0,19.8,87.7,1006.5,0.00,0,0.0,0.0,0,0.0,19.1,0.0,11.9,3.474
2010/03/02,03:20:01,87,226,28,0.1,5.7,13.4,19.8,87.5,1006.3,0.00,0,0.0,0.0,0,0.0,18.9,0.0,11.7,3.472
2010/03/02,03:30:01,78,252,30,0.1,5.9,13.7,19.8,87.5,1006.3,0.00,0,0.0,0.0,0,0.0,18.9,0.0,11.8,3.472
2010/03/02,03:40:01,82,237,27,0.0,5.7,12.5,19.8,87.5,1006.3,0.00,0,0.0,0.0,0,0.0,18.9,0.0,12.0,3.473
2010/03/02,03:50:01,26,193,327,0.1,3.9,13.0,19.7,87.6,1006.0,0.00,0,0.0,0.0,0,0.0,18.9,0.0,12.0,3.472
2010/03/02,04:00:01,342,159,335,0.0,5.7,12.6,19.7,87.8,1006.1,0.00,0,0.0,0.0,0,0.0,18.4,0.0,12.2,3.472
2010/03/02,04:10:01,68,230,29,0.2,6.5,13.2,19.7,87.8,1006.1,0.00,0,0.0,0.0,0,0.0,18.7,0.0,11.8,3.472
2010/03/02,04:20:01,92,274,90,0.0,5.7,13.3,19.7,87.9,1006.2,0.00,0,0.0,0.0,0,0.0,18.7,0.0,11.7,3.473
2010/03/02,04:30:01,86,256,39,0.0,3.5,11.5,19.7,88.0,1006.1,0.00,0,0.0,0.0,0,0.0,18.9,0.0,11.9,3.473
2010/03/02,04:40:01,85,232,41,0.0,3.6,10.2,19.6,87.9,1005.9,0.00,0,0.0,0.0,0,0.0,18.9,0.0,11.7,3.473
2010/03/02,04:50:01,84,219,42,0.0,3.7,9.9,19.5,88.0,1005.7,0.00,0,0.0,0.0,0,0.0,18.7,0.0,12.1,3.473
2010/03/02,05:00:01,342,154,264,0.0,2.4,9.8,19.5,88.2,1005.6,0.00,0,0.0,0.0,0,0.0,18.4,0.0,11.8,3.473
2010/03/02,05:10:01,339,162,271,0.1,2.5,9.8,19.5,88.5,1005.7,0.00,0,0.0,0.0,0,0.0,18.2,0.0,12.0,3.473
2010/03/02,05:20:01,6,186,341,0.0,2.5,9.8,19.5,88.4,1005.8,0.00,0,0.0,0.0,0,0.0,18.4,0.0,11.8,3.473
2010/03/02,05:30:01,85,219,28,0.0,4.4,10.1,19.5,88.5,1005.9,0.00,0,0.0,0.0,0,0.0,18.4,0.0,11.7,3.473
2010/03/02,05:40:01,85,224,35,0.0,2.0,7.0,19.5,88.4,1005.9,0.00,0,0.0,0.0,0,0.0,18.4,0.0,12.0,3.473
2010/03/02,05:50:01,342,139,272,0.0,4.7,13.3,19.5,88.3,1006.0,0.00,0,0.0,0.0,0,0.0,18.6,0.0,12.1,3.474
2010/03/02,06:00:01,10,168,342,0.0,1.8,10.0,19.3,88.0,1005.9,0.00,0,0.0,0.0,0,0.0,18.4,0.0,11.7,3.473
2010/03/02,06:10:01,26,136,266,0.0,1.6,7.5,19.3,88.6,1005.7,0.00,0,0.0,0.0,0,0.0,18.2,0.0,11.4,3.473
2010/03/02,06:20:01,9,146,268,0.1,1.6,7.4,19.4,88.7,1005.8,0.00,0,0.0,0.0,0,0.0,18.2,0.0,11.8,3.474
2010/03/02,06:30:01,13,132,270,0.0,1.9,12.4,19.4,88.8,1005.8,0.00,0,0.0,0.0,0,0.0,18.2,0.0,12.0,3.474
2010/03/02,06:40:01,9,179,341,0.0,1.1,9.8,19.5,88.8,1005.8,0.00,0,0.0,0.0,0,0.0,18.6,0.0,12.1,3.473
2010/03/02,06:50:01,6,167,266,0.1,1.0,7.6,19.3,88.5,1005.7,0.00,0,0.0,0.0,0,0.0,18.2,0.0,11.9,3.473
2010/03/02,07:00:01,25,210,25,0.2,1.1,7.4,19.6,89.1,1005.9,0.00,0,0.0,0.0,0,0.0,18.4,0.0,12.0,3.472
2010/03/02,07:10:01,87,219,28,0.2,0.8,6.9,19.6,88.6,1005.9,0.00,0,0.0,0.0,0,0.0,18.6,0.0,11.7,3.473
2010/03/02,07:20:01,86,227,28,0.2,1.5,9.8,19.6,88.8,1006.1,0.00,0,0.0,0.0,0,0.0,18.6,0.0,11.7,3.473
2010/03/02,07:30:01,84,264,26,0.2,4.6,12.2,19.8,88.9,1006.2,0.00,0,0.0,0.0,0,0.0,18.9,0.0,12.1,3.472
2010/03/02,07:40:01,87,220,29,0.2,0.8,6.8,19.8,88.6,1006.1,0.00,0,0.0,0.0,0,0.0,19.2,0.0,11.6,3.473
2010/03/02,07:50:01,85,210,25,0.1,1.0,6.7,20.0,88.6,1006.2,0.00,0,0.0,0.0,0,0.0,19.7,0.0,11.9,3.473
2010/03/02,08:00:01,25,165,324,0.0,1.1,6.9,20.3,88.7,1006.1,0.00,0,0.0,0.0,0,0.0,20.4,0.0,12.0,3.473
2010/03/02,08:10:01,23,205,17,0.0,3.9,10.2,20.6,88.5,1006.3,0.00,0,0.0,0.0,0,0.0,20.7,0.0,11.6,3.472
2010/03/02,08:20:01,85,221,26,0.0,3.9,10.1,20.7,88.1,1006.4,0.00,0,0.0,0.0,0,0.0,20.9,0.0,12.0,3.472
2010/03/02,08:30:01,85,211,25,0.1,5.0,10.0,20.8,87.9,1006.6,0.00,0,0.0,0.0,0,0.0,21.1,0.0,11.8,3.472
2010/03/02,08:40:01,23,187,273,0.1,4.8,9.1,20.9,87.7,1006.5,0.00,0,0.0,0.0,0,0.0,21.7,0.0,11.8,3.472
2010/03/02,08:50:01,16,163,338,0.1,5.3,10.2,21.0,86.8,1006.9,0.00,0,0.0,0.0,0,0.0,22.1,0.0,11.8,3.473
2010/03/02,09:00:01,18,178,341,0.2,5.9,10.3,21.0,86.7,1006.9,0.00,0,0.0,0.0,0,0.0,21.6,0.0,11.6,3.472
2010/03/02,09:10:01,18,199,342,0.2,6.3,12.8,21.0,86.6,1007.1,0.00,0,0.0,0.0,0,0.0,21.6,0.0,11.5,3.472
2010/03/02,09:20:01,81,210,25,0.1,6.3,13.2,21.0,86.2,1007.1,0.00,0,0.0,0.0,0,0.0,21.4,0.0,11.8,3.470
2010/03/02,09:30:01,15,189,342,0.0,5.5,10.5,21.2,86.1,1007.2,0.00,0,0.0,0.0,0,0.0,21.9,0.0,11.8,3.470
2010/03/02,09:40:01,21,200,346,0.1,5.9,12.9,21.2,85.7,1007.2,0.00,0,0.0,0.0,0,0.0,22.2,0.0,11.5,3.473
2010/03/02,09:50:01,71,221,37,0.2,6.0,14.8,21.0,85.5,1007.2,0.00,0,0.0,0.0,0,0.0,21.2,0.0,11.7,3.473
2010/03/02,10:00:01,63,220,40,0.2,5.8,15.0,20.9,85.8,1007.2,0.00,0,0.0,0.0,0,0.0,21.1,0.0,11.7,3.472
2010/03/02,10:10:01,67,226,40,0.1,6.0,14.1,20.6,85.7,1007.2,0.00,0,0.0,0.0,0,0.0,20.4,0.0,12.2,3.472
2010/03/02,10:20:01,67,225,33,0.1,6.2,13.6,20.4,85.2,1007.3,0.00,0,0.0,0.0,0,0.0,20.4,0.0,11.9,3.473
2010/03/02,10:30:01,67,218,30,0.1,5.8,13.8,20.6,85.6,1007.1,0.00,0,0.0,0.0,0,0.0,20.7,0.0,11.9,3.472
2010/03/02,10:40:01,25,196,350,0.2,5.3,12.0,20.9,84.6,1007.0,0.00,0,0.0,0.0,0,0.0,21.9,0.0,12.0,3.473
2010/03/02,10:50:01,19,196,14,0.1,5.1,13.4,20.9,83.9,1007.0,0.00,0,0.0,0.0,0,0.0,22.1,0.0,11.8,3.472
2010/03/02,11:00:01,65,214,31,0.3,5.7,14.3,20.6,83.7,1007.0,0.00,0,0.0,0.0,0,0.0,20.9,0.0,11.5,3.473
2010/03/02,11:10:01,63,216,32,0.2,5.6,14.2,20.6,84.2,1006.9,0.00,0,0.0,0.0,0,0.0,20.7,0.0,11.6,3.472
2010/03/02,11:20:01,63,212,32,0.1,5.5,14.2,20.5,83.0,1006.8,0.00,60,0.0,0.0,0,0.0,20.9,0.0,11.7,3.473
2010/03/02,11:30:01,69,238,31,0.0,6.3,14.1,20.5,83.1,1006.8,0.00,0,0.0,0.0,0,0.0,20.2,0.0,11.7,3.473
2010/03/02,11:40:01,67,224,33,0.2,5.9,14.0,20.6,83.6,1006.7,0.00,0,0.0,0.0,0,0.0,20.9,0.0,12.0,3.473
2010/03/02,11:50:01,26,197,348,0.2,5.4,14.3,21.1,83.0,1006.7,0.00,0,0.0,0.0,0,0.0,22.9,0.0,11.5,3.470
2010/03/02,12:00:01,22,198,351,0.1,5.0,14.3,21.2,81.3,1006.7,0.00,0,0.0,0.0,0,0.0,22.7,0.0,11.7,3.472
2010/03/02,12:10:01,26,203,22,0.2,4.9,11.9,21.3,82.1,1006.5,0.00,0,0.0,0.0,0,0.0,22.4,0.0,11.7,3.472
2010/03/02,12:20:01,24,202,13,0.3,5.3,13.9,20.9,82.7,1006.4,0.00,0,0.0,0.0,0,0.0,21.7,0.0,11.5,3.470
2010/03/02,12:30:01,26,202,23,0.0,5.3,13.3,20.6,83.7,1006.2,0.00,40,0.0,0.0,0,0.0,21.1,0.0,11.8,3.470
2010/03/02,12:40:01,22,182,354,0.0,5.9,15.2,20.6,84.4,1006.1,0.00,0,0.0,0.0,0,0.0,20.4,0.0,11.6,3.472
2010/03/02,12:50:01,15,180,353,0.1,5.8,14.7,20.5,85.4,1006.0,0.00,0,0.0,0.0,0,0.0,20.6,0.0,11.7,3.473
2010/03/02,13:00:01,21,193,352,0.1,5.5,14.0,20.4,84.7,1005.8,0.00,0,0.0,0.0,0,0.0,20.6,0.0,11.9,3.472
2010/03/02,13:10:01,25,198,353,0.1,5.7,14.8,20.3,84.6,1005.8,0.00,0,0.0,0.0,0,0.0,20.4,0.0,11.8,3.472
2010/03/02,13:20:01,16,185,350,0.1,5.5,13.4,20.4,85.0,1005.8,0.00,0,0.0,0.0,0,0.0,20.6,0.0,12.1,3.469
2010/03/02,13:30:01,23,177,352,0.1,5.5,12.8,20.4,84.6,1005.8,0.03,280,0.4,0.0,0,0.0,20.4,0.0,11.7,3.472
2010/03/02,13:40:01,21,190,351,0.1,6.4,15.3,20.2,85.5,1005.7,0.23,600,1.2,0.0,0,0.0,19.6,0.0,11.7,3.472
2010/03/02,13:50:01,313,117,285,0.1,6.1,12.0,20.1,86.9,1005.7,0.11,520,1.3,0.0,0,0.0,19.1,0.0,11.8,3.473
2010/03/02,14:00:01,269,86,263,0.1,6.3,14.5,20.2,87.6,1005.7,0.66,590,2.5,0.0,0,0.0,19.2,0.0,11.8,3.473
2010/03/02,14:10:01,324,69,219,0.1,5.9,13.7,20.1,88.1,1005.5,0.18,580,1.2,0.0,0,0.0,19.2,0.0,11.9,3.470
2010/03/02,14:20:01,255,70,217,0.1,6.2,14.6,20.0,88.4,1005.5,0.26,590,0.4,0.0,0,0.0,19.2,0.0,11.9,3.470
2010/03/02,14:30:01,257,76,245,0.0,6.4,12.2,19.9,88.3,1005.4,0.28,590,3.4,0.0,0,0.0,19.2,0.0,11.9,3.472
2010/03/02,14:40:01,341,158,331,0.0,5.1,16.4,19.9,88.7,1005.3,0.87,600,10.9,0.0,0,0.0,18.9,0.0,11.8,3.473